Back to catalog

STARLINK-32544

AliveCommunicationsVLEO
NORAD 61917·PAYLOAD·🇺🇸 United States

Launched Nov 11, 2024 from Cape Canaveral Space Force Station

Loading…

Next Passes (next 24 hours)

TLE

FreshSource: CelesTrak SupGP

Epoch: Sep 14, 2026, 14:25 UTC

1 61917C 24207F   26257.60118056  .00055561  00000+0  20127-2 0  2570
2 61917  43.0001 294.7424 0001538 274.8496 139.6246 15.27546059    19

Track STARLINK-32544 in real time with AllMySat

Download on the App Store